Tracking 18945 objects as of 19-Jan-2018
HD Live streaming from Space Station
objects crossing your sky now

COSMOS 1922

Track COSMOS 1922 now!
COSMOS 1922 is classified as:


NORAD ID: 18881
Int'l Code: 1988-013A
Perigee: 5,806.0 km
Apogee: 34,614.4 km
Inclination: 68.8 °
Period: 718.8 minutes
Semi major axis: 26581 km
RCS: 12.0457 m2 (large)
Launch date: February 26, 1988
Source: Commonwealth of Independent States (former USSR) (CIS)
Launch site: PLESETSK MISSILE AND SPACE COMPLEX (PKMTR)
aabbcc
Your satellite tracking list
Your tracking list is empty




NASA's NSSDC Master Catalog

Two Line Element Set (TLE):
1 18881U 88013A   18017.45650774 -.00000259  00000-0  00000+0 0  9997
2 18881  68.8034 220.8316 5418931 124.4151 299.1786  2.00327453219008
Source of the keplerian elements: AFSPC